[[{"header":{"parameterUnit":"m.s-1","parameterCategory":1,"la1":30.2991,"la2":30.254,"lo1":-89.0895,"lo2":-89.0444,"dy":0.0017,"dx":0.0017,"nx":28,"ny":28,"refTime":"2025-07-15T09:00:00:Z","depth":0,"parameterNumber":2,"parameterNumberName":"U-component_of_WINDS"},"data":[0,0,0,0,0,0,0,0,0,0,0,0,0,0,0,0,0,0,0,0,0,0,0,0,0,0,0,0,0,0,0,0,0,0,0,0,0,0,0,0,0,0,0,0,0,0,0,0,0,0,0,0,0,0,0,0,0,0,-2.2508,-2.2508,0,-2.258,-2.2581,-2.2582,-2.2579,-2.2578,-2.2577,-2.2576,-2.2651,-2.2654,-2.2657,0,0,0,0,0,0,0,0,0,0,0,0,0,-2.2367,-2.237,-2.2508,-2.2509,-2.2509,-2.258,-2.2581,-2.2582,-2.2579,-2.2578,-2.2576,-2.2575,-2.265,-2.2654,-2.2657,0,0,0,0,0,0,0,0,0,0,0,0,0,-2.2433,-2.2371,-2.2507,-2.2516,-2.2518,-2.258,-2.2581,-2.2582,-2.2579,-2.2578,-2.2576,-2.2575,-2.2649,-2.2653,-2.2658,-2.2716,0,0,-2.2671,-2.2673,0,0,0,0,0,0,0,0,-2.2429,-2.2438,-2.2514,-2.2516,-2.2518,-2.2569,-2.2559,-2.2627,-2.2579,-2.2556,-2.2576,-2.2574,-2.2625,-2.2631,-2.2648,-2.2719,-2.2723,-2.2672,-2.2674,-2.2676,-2.2677,0,0,0,0,0,0,0,-2.2424,-2.2435,-2.2536,-2.2515,-2.2517,-2.2517,-2.2524,-2.2572,-2.2598,-2.2558,-2.2558,-2.2566,-2.2626,-2.2644,-2.265,-2.2724,-2.2671,-2.2675,-2.2678,-2.268,-2.2845,-2.2847,0,0,0,0,0,0,-2.2418,-2.2431,-2.2534,-2.2539,-2.2469,-2.2521,-2.2529,-2.2554,-2.2598,-2.2603,-2.2568,-2.2566,-2.2637,-2.2645,-2.2653,-2.2723,-2.2676,-2.268,-2.2683,-2.2843,-2.2845,-2.2847,0,0,0,0,0,0,-2.2415,-2.2427,-2.2531,-2.2485,-2.2498,-2.2525,-2.2553,-2.2556,-2.2574,-2.2605,-2.261,-2.2581,-2.2636,-2.2646,-2.27,-2.2725,-2.2682,-2.2686,-2.2841,-2.2844,-2.2846,-2.2864,0,0,0,0,0,0,-2.2411,-2.2426,-2.2448,-2.2485,-2.25,-2.2577,-2.2554,-2.2559,-2.2582,-2.2581,-2.2619,-2.2624,-2.2636,-2.2693,-2.2704,-2.2731,-2.269,-2.2839,-2.2843,-2.2846,-2.2861,-2.2867,-2.2872,0,0,0,0,0,-2.2406,-2.2451,-2.245,-2.2462,-2.2529,-2.2578,-2.2587,-2.2599,-2.2584,-2.2607,-2.2626,-2.2623,-2.2721,-2.2699,-2.2711,-2.2739,-2.2838,-2.2842,-2.2845,-2.2859,-2.2866,-2.2872,0,0,0,0,0,0,-2.2417,-2.2456,-2.2455,-2.2513,-2.2542,-2.2578,-2.2607,-2.2606,-2.2641,-2.2638,-2.2652,-2.2661,-2.2714,-2.2732,-2.2707,-2.2797,-2.2777,-2.2784,-2.2783,-2.279,-2.2795,-2.2789,-2.2694,0,0,0,0,0,-2.2426,-2.2463,-2.2495,-2.2543,-2.2558,-2.258,-2.2602,-2.2609,-2.264,-2.2652,-2.2676,-2.2706,-2.2744,-2.2768,-2.2804,-2.2864,-2.2872,-2.289,-2.2895,-2.2899,-2.2904,-2.2936,-2.2944,-2.286,-2.286,-2.286,0,0,-2.2446,-2.2472,-2.2494,-2.2546,-2.257,-2.2607,-2.259,-2.2631,-2.2659,-2.2659,-2.271,-2.2728,-2.2763,-2.282,-2.2846,-2.2836,-2.2929,-2.2904,-2.2907,-2.291,-2.2941,-2.2949,-2.2956,-2.2863,-2.2862,-2.2862,0,0,-2.25,-2.2524,-2.2566,-2.259,-2.2625,-2.2639,-2.2649,-2.2684,-2.2696,-2.2748,-2.2748,-2.2782,-2.2846,-2.2871,-2.2892,-2.2955,-2.2953,-2.2966,-2.2993,-2.3024,-2.3031,-2.3037,-2.3058,-2.3066,-2.2972,-2.2972,-2.2972,0,-2.252,-2.2576,-2.2588,-2.2629,-2.2651,-2.2652,-2.2694,-2.2717,-2.2763,-2.2778,-2.2767,-2.2848,-2.2872,-2.2933,-2.2948,-2.2966,-2.2977,-2.2962,-2.3029,-2.3035,-2.3041,-2.3061,-2.3069,-2.2973,-2.2973,-2.2973,-2.2973,0,-2.2598,-2.2637,-2.2667,-2.271,-2.2737,-2.2778,-2.2796,-2.2821,-2.2826,-2.2841,-2.2893,-2.2922,-2.2963,-2.2978,-2.2984,-2.3041,-2.3034,-2.3026,-2.3006,-2.305,-2.3069,-2.3077,-2.2975,-2.2974,-2.2974,-2.2974,0,0,-2.2662,-2.271,-2.2721,-2.274,-2.2779,-2.2809,-2.2851,-2.2891,-2.2912,-2.2943,-2.2978,-2.3032,-2.3025,-2.3048,-2.3056,-2.3084,-2.313,-2.3072,-2.3073,-2.3081,-2.3194,-2.3199,-2.3208,-2.3129,-2.3131,-2.3132,-2.3191,0,-2.272,-2.2792,-2.2804,-2.2868,-2.2903,-2.2904,-2.294,-2.2968,-2.2983,-2.3016,-2.3033,-2.3071,-2.3058,-2.3073,-2.31,-2.3119,-2.3153,-2.3115,-2.3162,-2.3163,-2.3152,-2.3218,-2.3224,-2.3278,-2.3198,-2.32,-2.3201,0,-2.2797,-2.2829,-2.2896,-2.2929,-2.2945,-2.2977,-2.3014,-2.3045,-2.3076,-2.3085,-2.3111,-2.3116,-2.3159,-2.3137,-2.3196,-2.317,-2.319,-2.3202,-2.3204,-2.3209,-2.3184,-2.3223,-2.3295,-2.3303,-2.3213,-2.3212,-2.3211,0,-2.2835,-2.2896,-2.2943,-2.296,-2.3,-2.3022,-2.304,-2.3069,-2.3092,-2.3125,-2.314,-2.3177,-2.3198,-2.3227,-2.3241,-2.3224,-2.3299,-2.3279,-2.3307,-2.3307,-2.3322,-2.3321,-2.3397,-2.3336,-2.3336,-2.3336,-2.3336,0,-2.2898,-2.2939,-2.2961,-2.299,-2.3036,-2.3049,-2.3094,-2.3111,-2.3137,-2.317,-2.3173,-2.3204,-2.3221,-2.3254,-2.3266,-2.3312,-2.3322,-2.333,-2.3333,-2.3329,-2.3328,-2.3342,-2.3338,-2.3338,-2.3338,-2.3337,-2.3337,0,-2.2948,-2.2965,-2.3017,-2.305,-2.3059,-2.3091,-2.3119,-2.3148,-2.3162,-2.3204,-2.3214,-2.3238,-2.3277,-2.3294,-2.3343,-2.335,-2.3403,-2.3403,-2.3392,-2.3393,-2.342,-2.3417,-2.3507,-2.3519,-2.3451,-2.3452,-2.3452,0,-2.2987,-2.3018,-2.3054,-2.3076,-2.3094,-2.3129,-2.3152,-2.3166,-2.3189,-2.3227,-2.3251,-2.329,-2.3321,-2.3384,-2.3406,-2.3443,-2.3443,-2.3472,-2.3449,-2.3444,-2.3442,-2.344,-2.3443,-2.3476,-2.3477,-2.3478,-2.3478,0,-2.3054,-2.306,-2.3093,-2.3128,-2.3155,-2.3184,-2.3212,-2.323,-2.3248,-2.3275,-2.3314,-2.3339,-2.3388,-2.3426,-2.3464,-2.3483,-2.3483,-2.3485,-2.3494,-2.349,-2.3482,-2.3486,-2.3403,-2.3483,-2.3483,-2.3482,-2.3482,-2.3482,-2.3099,-2.3126,-2.3155,-2.3191,-2.3214,-2.324,-2.3267,-2.3285,-2.3318,-2.3358,-2.3365,-2.3407,-2.3436,-2.3487,-2.3507,-2.354,-2.3533,-2.3546,-2.3549,-2.3551,-2.3552,-2.3477,-2.3548,-2.3548,-2.3547,-2.3547,-2.3547,0,-2.3165,-2.3183,-2.3216,-2.3255,-2.3283,-2.328,-2.3311,-2.3335,-2.3372,-2.3399,-2.343,-2.3475,-2.3512,-2.3536,-2.3574,-2.3596,-2.3597,-2.3605,-2.3603,-2.3607,-2.3557,-2.3546,-2.3603,-2.3603,-2.3603,-2.3603,-2.3603,-2.3603,-2.3202,-2.3248,-2.3257,-2.3314,-2.3332,-2.3373,-2.339,-2.3414,-2.3436,-2.3486,-2.3516,-2.3531,-2.3557,-2.3597,-2.363,-2.3637,-2.365,-2.3658,-2.3664,-2.3617,-2.3611,-2.3605,-2.3594,-2.3661,-2.3661,-2.3711,-2.3712,-2.3712]},{"header":{"parameterUnit":"m.s-1","parameterCategory":1,"la1":30.2991,"la2":30.254,"lo1":-89.0895,"lo2":-89.0444,"dy":0.0017,"dx":0.0017,"nx":28,"ny":28,"refTime":"2025-07-15T09:00:00:Z","depth":0,"parameterNumber":3,"parameterNumberName":"V-component_of_WINDS"},"data":[0,0,0,0,0,0,0,0,0,0,0,0,0,0,0,0,0,0,0,0,0,0,0,0,0,0,0,0,0,0,0,0,0,0,0,0,0,0,0,0,0,0,0,0,0,0,0,0,0,0,0,0,0,0,0,0,0,0,2.043,2.0432,0,2.0564,2.0566,2.0567,2.0589,2.0588,2.0587,2.0585,2.0721,2.0726,2.0731,0,0,0,0,0,0,0,0,0,0,0,0,0,2.0192,2.0196,2.043,2.0432,2.0433,2.0564,2.0566,2.0568,2.0589,2.0588,2.0586,2.0585,2.072,2.0725,2.0731,0,0,0,0,0,0,0,0,0,0,0,0,0,2.0308,2.0198,2.043,2.046,2.0464,2.0564,2.0566,2.0568,2.0589,2.0588,2.0586,2.0584,2.0718,2.0725,2.0732,2.0811,0,0,2.0753,2.0757,0,0,0,0,0,0,0,0,2.0301,2.0316,2.0454,2.0458,2.0463,2.0558,2.0532,2.0649,2.059,2.0542,2.0585,2.0583,2.0668,2.0679,2.0708,2.0817,2.0823,2.0754,2.0758,2.0761,2.0763,0,0,0,0,0,0,0,2.0293,2.0311,2.0483,2.0456,2.0461,2.0467,2.0481,2.0554,2.0613,2.0546,2.0548,2.0563,2.0671,2.0702,2.0712,2.0825,2.0754,2.076,2.0765,2.0767,2.1006,2.1008,0,0,0,0,0,0,2.028,2.0304,2.0479,2.0487,2.0376,2.0472,2.0489,2.0529,2.0613,2.0624,2.0565,2.0564,2.069,2.0704,2.0717,2.0815,2.0761,2.0768,2.0772,2.1004,2.1006,2.1009,0,0,0,0,0,0,2.0274,2.0295,2.0473,2.0396,2.0419,2.0478,2.0524,2.0533,2.0564,2.0627,2.0637,2.0586,2.069,2.0707,2.0787,2.082,2.0771,2.0778,2.1001,2.1004,2.1007,2.1011,0,0,0,0,0,0,2.0268,2.0293,2.0324,2.0397,2.0423,2.0542,2.0526,2.0537,2.0576,2.0576,2.0649,2.066,2.0689,2.0777,2.0794,2.0829,2.0783,2.0999,2.1003,2.1006,2.1008,2.1014,2.1019,0,0,0,0,0,2.0259,2.0319,2.0325,2.0346,2.0463,2.0544,2.0559,2.0593,2.0579,2.061,2.0651,2.0657,2.0814,2.0785,2.0805,2.0842,2.0997,2.1002,2.1006,2.1006,2.1013,2.1018,0,0,0,0,0,0,2.0247,2.0329,2.0337,2.0422,2.0476,2.0547,2.0587,2.0599,2.0657,2.0655,2.0694,2.071,2.0789,2.0824,2.079,2.0923,2.0904,2.0913,2.0897,2.0904,2.0909,2.0899,2.0789,0,0,0,0,0,2.0254,2.0314,2.0382,2.0451,2.0477,2.0528,2.0564,2.0586,2.0643,2.0666,2.0712,2.0767,2.0829,2.0869,2.0929,2.1014,2.103,2.1049,2.1054,2.1058,2.1065,2.1113,2.1122,2.1024,2.1024,2.1024,0,0,2.027,2.0322,2.0357,2.045,2.0494,2.0554,2.0547,2.0611,2.0656,2.0675,2.0754,2.0791,2.0855,2.0938,2.0977,2.097,2.1096,2.1064,2.1067,2.1072,2.1119,2.1128,2.1136,2.1027,2.1027,2.1026,0,0,2.0329,2.0375,2.0437,2.0482,2.055,2.0583,2.0598,2.0668,2.0693,2.0774,2.079,2.0844,2.0949,2.0995,2.1031,2.1109,2.1118,2.1128,2.1155,2.1201,2.1209,2.1216,2.1244,2.1253,2.1135,2.1135,2.1135,0,2.034,2.0431,2.0467,2.0531,2.0572,2.0593,2.0657,2.0698,2.0782,2.0809,2.08,2.0933,2.0978,2.1072,2.1091,2.1121,2.1139,2.1119,2.1205,2.1213,2.122,2.1246,2.1257,2.1136,2.1136,2.1136,2.1136,0,2.0441,2.0505,2.0547,2.0628,2.0673,2.0737,2.0782,2.0824,2.0842,2.0876,2.0958,2.1013,2.1085,2.1109,2.1127,2.1206,2.12,2.1197,2.1179,2.1229,2.1255,2.1266,2.1137,2.1137,2.1136,2.1136,0,0,2.0495,2.0596,2.0611,2.0648,2.0725,2.0775,2.084,2.0911,2.0946,2.1003,2.1058,2.1148,2.1146,2.1188,2.1211,2.1252,2.1311,2.1245,2.1247,2.1255,2.1402,2.1403,2.1414,2.1318,2.132,2.1321,2.1397,0,2.0563,2.0679,2.0714,2.0811,2.087,2.0892,2.0949,2.1002,2.1037,2.1092,2.113,2.1193,2.1186,2.1212,2.1253,2.1295,2.1341,2.129,2.1369,2.1371,2.1351,2.1428,2.1429,2.1497,2.1407,2.1409,2.141,0,2.0657,2.0717,2.082,2.089,2.0917,2.0967,2.1035,2.1088,2.1149,2.1171,2.1219,2.1239,2.1308,2.1287,2.1382,2.1346,2.1381,2.1406,2.141,2.1418,2.1393,2.1437,2.1519,2.1529,2.1426,2.1425,2.1424,0,2.0685,2.0792,2.0867,2.0899,2.0983,2.1017,2.1054,2.1114,2.1154,2.1214,2.1241,2.1308,2.1345,2.1396,2.1434,2.1415,2.1526,2.1508,2.1546,2.1545,2.1567,2.1565,2.1656,2.1591,2.1591,2.1591,2.159,0,2.0756,2.0819,2.0881,2.0928,2.0998,2.1038,2.1107,2.1145,2.1198,2.1252,2.1276,2.1326,2.1374,2.1431,2.1461,2.1535,2.1552,2.1571,2.1579,2.1569,2.1566,2.1591,2.1587,2.1593,2.1593,2.1592,2.1592,0,2.0799,2.0844,2.0928,2.1001,2.1021,2.107,2.1132,2.1179,2.1215,2.1283,2.1301,2.1358,2.1426,2.147,2.1556,2.1577,2.1658,2.1664,2.1637,2.164,2.1676,2.1672,2.1785,2.1802,2.1726,2.1727,2.1727,0,2.0841,2.089,2.0969,2.1007,2.1044,2.1105,2.1148,2.1189,2.1232,2.1307,2.1344,2.1414,2.1472,2.158,2.1629,2.1696,2.1703,2.1738,2.1713,2.1702,2.1703,2.1699,2.1704,2.1742,2.1742,2.1743,2.1743,0,2.0911,2.0931,2.0991,2.1059,2.1109,2.1165,2.122,2.125,2.1301,2.1349,2.1419,2.1464,2.1554,2.1623,2.1694,2.1732,2.1746,2.1751,2.1763,2.1753,2.1736,2.1746,2.1648,2.1748,2.1747,2.1747,2.1747,2.1747,2.0955,2.1,2.1062,2.1128,2.1175,2.1226,2.1273,2.1316,2.1376,2.1452,2.1473,2.1547,2.1608,2.1706,2.1745,2.1803,2.1799,2.1816,2.1821,2.1824,2.1825,2.1727,2.1816,2.1816,2.1816,2.1816,2.1816,0,2.1026,2.1068,2.1128,2.1206,2.1258,2.1268,2.133,2.1373,2.1438,2.1494,2.1551,2.1633,2.17,2.1755,2.1825,2.1861,2.1869,2.1878,2.1875,2.1884,2.1825,2.1807,2.187,2.187,2.187,2.187,2.187,2.187,2.1069,2.1145,2.1172,2.1272,2.1313,2.1386,2.142,2.1468,2.1514,2.1604,2.166,2.1696,2.1752,2.1826,2.1889,2.1903,2.1927,2.1935,2.195,2.1894,2.1888,2.1882,2.1866,2.194,2.194,2.2004,2.2005,2.2005]}]]